User: anonymous   Login
Location: Unspecified
(0.0000°N, 0.0000°E)
Time: 17:03:27
(UTC+00:00)
Language:

UME 1 - Orbit

View from above orbital plane
View from above orbital plane
View from above satellite
View from above satellite

Ground track
Ground track

The orbit data is extracted from the following two-line orbital elements,

1  8709U 76019A   18174.75544127 +.00000005 +00000-0 +63296-4 0  9998
2  8709 069.6748 090.3326 0010749 184.0649 205.4670 13.71402104117334
Epoch (UTC): 23 June 2018 18:07:50
Eccentricity: 0.0010749
inclination: 69.6748°
perigee height: 986 km
apogee height: 1002 km
right ascension of ascending node: 90.3326°
argument of perigee: 184.0649°
revolutions per day: 13.71402104
mean anomaly at epoch: 205.4670°
orbit number at epoch: 11733

The dashed part of the orbit path shows where the satellite is in the earth's shadow,  

DLR